This is the latest recevied weather packets stored in our database for station/object DG3GAI-6. If no packets are shown the sender has not sent any weather packets the latest 10 day(s).
| Time | Temp. | Humidity | Pressure | Rain* | Wind** | Luminosity | Snow |
|---|---|---|---|---|---|---|---|
| 1777882076 | 13.89° C | 54% | 1018 hPa | - | - | - | - |
| 1777880268 | 13.33° C | 58% | 1018 hPa | - | - | - | - |
| 1777878461 | 12.78° C | 66% | 1018 hPa | - | - | - | - |
| 1777876654 | 12.22° C | 67% | 1018 hPa | - | - | - | - |
| 1777874847 | 12.22° C | 66% | 1018 hPa | - | - | - | - |
| 1777873039 | 11.67° C | 66% | 1018 hPa | - | - | - | - |
| 1777871232 | 11.67° C | 63% | 1018 hPa | - | - | - | - |
| 1777869425 | 11.67° C | 62% | 1019 hPa | - | - | - | - |
| 1777867618 | 11.11° C | 61% | 1019 hPa | - | - | - | - |
| 1777865810 | 11.11° C | 59% | 1019 hPa | - | - | - | - |
| 1777864003 | 11.67° C | 60% | 1019 hPa | - | - | - | - |
| 1777862196 | 11.67° C | 60% | 1019 hPa | - | - | - | - |
| 1777860389 | 12.22° C | 58% | 1019 hPa | - | - | - | - |
| 1777858581 | 12.78° C | 59% | 1019 hPa | - | - | - | - |
| 1777856774 | 13.33° C | 59% | 1019 hPa | - | - | - | - |
| 1777854967 | 13.89° C | 60% | 1019 hPa | - | - | - | - |
| 1777853159 | 14.44° C | 59% | 1019 hPa | - | - | - | - |
| 1777851352 | 14.44° C | 59% | 1019 hPa | - | - | - | - |
| 1777849545 | 15° C | 58% | 1019 hPa | - | - | - | - |
| 1777847738 | 15° C | 57% | 1019 hPa | - | - | - | - |
| 1777845930 | 15.56° C | 54% | 1019 hPa | - | - | - | - |
| 1777844123 | 15.56° C | 53% | 1019 hPa | - | - | - | - |
| 1777842316 | 15.56° C | 51% | 1019 hPa | - | - | - | - |
| 1777840509 | 15.56° C | 50% | 1019 hPa | - | - | - | - |
| 1777838701 | 15.56° C | 49% | 1019 hPa | - | - | - | - |
* Rain since midnight (hover to see other rain measurements)
** Current wind speed in m/s (hover to see current wind gust speed)